Weather reports worldwide

Advertisment
Manston, United Kingdom (3797): temperature & dewpoint: 18.11.2017 18:00:00 - 24.11.2017 18:00:00 (GMT)Manston, United Kingdom (3797): wind speed & gusts: 18.11.2017 18:00:00 - 24.11.2017 18:00:00 (GMT)Manston, United Kingdom (3797): wind direction: 18.11.2017 18:00:00 - 24.11.2017 18:00:00 (GMT)Manston, United Kingdom (3797): reduced air pressure: 18.11.2017 18:00:00 - 24.11.2017 18:00:00 (GMT)Manston, United Kingdom (3797): visibility: 18.11.2017 18:00:00 - 24.11.2017 18:00:00 (GMT)Manston, United Kingdom (3797): sunshine duration: 18.11.2017 18:00:00 - 24.11.2017 18:00:00 (GMT)Manston, United Kingdom (3797): precipitation: 18.11.2017 18:00:00 - 24.11.2017 18:00:00 (GMT)
Date & Time tt [°C] td [°C] ff [km/h] ff [kn] fx [km/h] fx [kn] dd ppp [hPa] vv [km] sd [min] rr [mm]
24.11.2017 18:00:00 5,5 2,3 8 4 - - NNW 1012,5 35 0 0,0
24.11.2017 17:00:00 6,2 3,2 8 4 - - NW 1012,5 17 0 0,0
24.11.2017 16:00:00 6,3 3,1 5 3 - - NNW 1011,9 35 0 0,0
24.11.2017 15:00:00 7,1 3,7 5 3 - - NW 1012,0 29 0 0,0
24.11.2017 14:00:00 7,3 4,1 13 7 - - NW 1011,7 45 0 0,0
24.11.2017 13:00:00 7,8 4,0 8 4 - - WNW 1011,6 27 0 0,0
24.11.2017 12:00:00 7,7 4,6 9 5 - - NW 1011,9 35 18 0,0
24.11.2017 11:00:00 7,9 5,6 13 7 - - NW 1011,6 30 24 0,0
24.11.2017 10:00:00 7,8 5,3 13 7 - - NW 1010,8 19 60 0,0
24.11.2017 09:00:00 6,8 5,3 8 4 - - W 1009,9 21 30 0,0
24.11.2017 08:00:00 5,9 5,1 13 7 - - W 1009,6 24 0 -
24.11.2017 07:00:00 5,0 4,2 11 6 - - WSW 1008,4 21 0 0,0
24.11.2017 06:00:00 6,1 5,3 15 8 - - WSW 1008,0 22 0 0,0
24.11.2017 05:00:00 5,8 5,0 11 6 - - SW 1007,1 28 0 0,0
24.11.2017 04:00:00 6,0 5,3 9 5 - - SW 1006,6 21 - 0,0
24.11.2017 03:00:00 6,0 5,2 11 6 - - S 1006,4 21 0 0,4
24.11.2017 02:00:00 6,4 5,0 11 6 - - S 1006,7 12 0 1,0
24.11.2017 01:00:00 6,8 4,8 11 6 - - S 1006,8 22 0 0,0
24.11.2017 00:00:00 7,1 4,6 15 8 - - SSW 1006,7 17 - 0,4
23.11.2017 23:00:00 8,4 4,3 15 8 - - WSW 1007,0 17 0 0,0
23.11.2017 22:00:00 8,3 4,3 13 7 - - SW 1007,5 16 0 0,0
23.11.2017 21:00:00 8,4 4,2 15 8 - - SW 1007,0 18 0 0,0
23.11.2017 20:00:00 7,6 3,7 16 9 - - SW 1007,1 18 0 0,0
23.11.2017 19:00:00 8,1 3,2 18 10 - - SW 1006,4 23 0 0,0
23.11.2017 18:00:00 8,7 2,9 26 14 - - SW 1005,6 25 0 0,0
23.11.2017 17:00:00 8,7 3,2 22 12 - - SW 1004,9 26 0 0,0
23.11.2017 16:00:00 9,6 2,9 28 15 50 27 SW 1004,1 35 12 0,0
23.11.2017 15:00:00 10,7 2,7 34 18 46 25 SW 1003,1 45 60 0,0
23.11.2017 14:00:00 10,9 2,6 29 16 46 25 SW 1002,2 40 60 0,0
23.11.2017 13:00:00 10,8 2,8 34 18 46 25 WSW 1001,7 45 60 0,0
23.11.2017 12:00:00 10,3 3,2 31 17 50 27 WSW 1000,8 30 60 0,0
23.11.2017 11:00:00 10,0 3,9 41 22 59 32 W 999,7 30 36 0,0
23.11.2017 10:00:00 9,7 6,7 37 20 54 29 W 997,6 23 12 0,6
23.11.2017 09:00:00 13,1 10,5 31 17 48 26 SW 995,0 24 18 0,0
23.11.2017 08:00:00 12,8 10,6 31 17 55 30 SW 993,6 22 0 0,0
23.11.2017 07:00:00 12,9 11,0 39 21 57 31 SW 991,8 17 0 0,4
23.11.2017 06:00:00 12,7 11,9 41 22 81 44 SSW 989,8 4,7 0 2,4
23.11.2017 05:00:00 14,1 10,5 54 29 80 43 SSW 989,0 15 0 0,0
23.11.2017 04:00:00 14,3 9,2 55 30 80 43 SSW 988,8 13 - -
23.11.2017 03:00:00 13,9 8,2 54 29 81 44 S 989,4 20 0 0,0
23.11.2017 02:00:00 14,1 7,7 55 30 72 39 S 990,4 25 0 0,0
23.11.2017 01:00:00 14,1 7,8 52 28 74 40 S 991,5 21 0 -
23.11.2017 00:00:00 14,3 7,9 46 25 67 36 S 992,2 22 - 0,0
22.11.2017 23:00:00 13,8 8,0 48 26 80 43 S 992,9 23 0 0,0
22.11.2017 22:00:00 14,3 7,9 54 29 80 43 S 993,3 20 0 0,0
22.11.2017 21:00:00 13,7 7,2 54 29 81 44 SSW 993,5 17 0 0,0
22.11.2017 20:00:00 13,5 6,6 48 26 65 35 S 994,3 25 0 0,0
22.11.2017 19:00:00 13,1 6,5 37 20 57 31 S 995,7 30 0 0,0
22.11.2017 18:00:00 12,7 7,2 42 23 63 34 S 996,5 30 0 0,0
22.11.2017 17:00:00 12,6 7,2 35 19 52 28 S 997,4 30 0 0,0
22.11.2017 16:00:00 12,5 6,9 37 20 65 35 S 998,7 27 12 0,0
22.11.2017 15:00:00 12,9 7,4 46 25 65 35 S 998,9 16 60 0,0
22.11.2017 14:00:00 13,3 8,1 46 25 67 36 S 999,4 27 60 0,0
22.11.2017 13:00:00 13,7 8,4 44 24 63 34 SSW 1000,5 17 60 0,0
22.11.2017 12:00:00 14,3 8,1 41 22 61 33 SSW 1001,5 22 60 0,0
22.11.2017 11:00:00 14,3 8,6 39 21 59 32 SSW 1002,4 25 60 0,0
22.11.2017 10:00:00 13,9 10,0 35 19 50 27 SSW 1002,7 15 24 0,0
22.11.2017 09:00:00 12,7 10,3 28 15 46 25 SSW 1003,5 14 0 0,0
22.11.2017 08:00:00 12,4 10,0 37 20 57 31 SSW 1003,5 14 0 0,0
22.11.2017 07:00:00 12,2 9,9 39 21 55 30 SSW 1003,2 15 - 0,0
22.11.2017 06:00:00 12,5 10,1 29 16 48 26 SSW 1003,3 14 0 0,0
22.11.2017 05:00:00 12,5 10,3 29 16 50 27 SW 1003,8 16 0 0,0
22.11.2017 04:00:00 12,4 10,3 31 17 54 29 SW 1003,9 16 0 0,0
22.11.2017 03:00:00 12,8 10,4 35 19 55 30 SSW 1004,2 16 0 0,0
22.11.2017 02:00:00 12,9 9,4 31 17 52 28 SW 1004,9 28 0 0,0
22.11.2017 01:00:00 12,8 9,5 35 19 48 26 SW 1005,2 26 0 0,0
22.11.2017 00:00:00 12,4 10,3 35 19 52 28 SW 1006,0 16 - 0,0
21.11.2017 23:00:00 12,4 10,3 34 18 55 30 SW 1006,0 15 0 0,0
21.11.2017 22:00:00 12,2 10,3 28 15 - - SW 1006,7 17 0 0,0
21.11.2017 21:00:00 12,2 10,6 24 13 - - SSW 1007,1 13 0 0,0
21.11.2017 20:00:00 12,6 10,4 21 11 - - SSW 1007,9 15 0 0,0
21.11.2017 19:00:00 12,1 10,3 24 13 - - SSW 1008,4 13 0 0,0
21.11.2017 18:00:00 12,4 9,6 24 13 - - SSW 1008,8 25 0 0,0
21.11.2017 17:00:00 12,0 9,0 26 14 - - SW 1009,0 22 0 0,0
21.11.2017 16:00:00 12,2 8,8 24 13 - - SW 1009,2 27 0 0,0
21.11.2017 15:00:00 13,1 8,9 31 17 50 27 SW 1009,5 30 0 0,0
21.11.2017 14:00:00 13,3 9,3 26 14 - - SW 1009,9 22 0 0,0
21.11.2017 13:00:00 14,0 9,5 28 15 - - WSW 1010,4 17 18 0,0
21.11.2017 12:00:00 13,5 9,8 29 16 - - WSW 1011,3 18 24 0,0
21.11.2017 11:00:00 12,7 9,8 28 15 - - WSW 1012,2 19 0 0,0
21.11.2017 10:00:00 12,4 9,9 22 12 - - SW 1012,2 16 0 -
21.11.2017 09:00:00 12,1 10,2 28 15 - - SW 1011,9 16 0 0,0
21.11.2017 08:00:00 11,7 10,2 28 15 - - SW 1011,9 16 0 0,0
21.11.2017 07:00:00 11,6 10,1 28 15 - - SW 1011,7 19 0 0,0
21.11.2017 06:00:00 12,0 10,7 24 13 - - WSW 1012,0 18 0 0,0
21.11.2017 05:00:00 12,2 11,0 18 10 - - WSW 1012,2 16 0 0,0
21.11.2017 04:00:00 12,2 11,1 21 11 - - WSW 1012,2 16 0 0,0
21.11.2017 03:00:00 12,1 11,1 22 12 - - WSW 1012,4 16 0 0,0
21.11.2017 02:00:00 11,9 10,8 18 10 - - WSW 1012,7 18 0 0,0
21.11.2017 01:00:00 12,1 11,1 21 11 - - WSW 1012,7 16 0 0,0
21.11.2017 00:00:00 12,2 11,1 24 13 - - WSW 1013,2 15 - 0,0
20.11.2017 23:00:00 12,3 11,0 24 13 - - WSW 1013,0 11 0 0,0
20.11.2017 22:00:00 12,2 11,0 18 10 - - WSW 1013,1 16 0 0,0
20.11.2017 21:00:00 12,3 11,0 22 12 - - WSW 1013,2 22 0 0,0
20.11.2017 20:00:00 12,2 10,9 18 10 - - WSW 1013,2 24 0 0,0
20.11.2017 19:00:00 11,9 10,7 22 12 - - WSW 1012,9 23 0 0,0
20.11.2017 18:00:00 11,8 10,7 24 13 - - WSW 1012,9 22 0 0,0
20.11.2017 17:00:00 11,8 10,6 22 12 - - WSW 1012,9 17 0 0,0
20.11.2017 16:00:00 11,7 10,6 21 11 - - W 1013,1 40 0 -
20.11.2017 15:00:00 11,4 10,5 26 14 48 26 SW 1012,9 19 0 0,0
20.11.2017 14:00:00 12,2 9,8 31 17 - - WSW 1013,3 35 - 0,0
20.11.2017 13:00:00 11,9 9,6 29 16 - - WSW 1014,0 30 0 0,0
20.11.2017 12:00:00 11,7 9,6 31 17 46 25 WSW 1014,6 30 0 0,0
20.11.2017 11:00:00 11,1 9,2 31 17 - - WSW 1015,6 30 0 0,0
20.11.2017 10:00:00 10,3 8,8 29 16 - - SW 1015,9 30 0 0,2
20.11.2017 09:00:00 9,0 8,5 24 13 - - WSW 1016,6 9 0 0,0
20.11.2017 08:00:00 8,5 8,3 18 10 - - SW 1017,3 4,2 0 0,8
20.11.2017 07:00:00 8,0 7,8 15 8 - - SW 1017,9 3,3 0 1,0
20.11.2017 06:00:00 7,8 6,6 15 8 - - SSW 1018,6 18 0 -
20.11.2017 05:00:00 6,2 3,8 13 7 - - S 1019,0 35 0 0,0
20.11.2017 04:00:00 5,0 2,6 11 6 - - SSE 1019,7 40 0 0,0
20.11.2017 03:00:00 4,3 2,0 9 5 - - S 1020,7 22 0 0,0
20.11.2017 02:00:00 3,3 1,2 11 6 - - SSW 1021,5 23 0 -
20.11.2017 01:00:00 3,2 1,3 13 7 - - SW 1022,3 18 0 0,0
20.11.2017 00:00:00 3,3 1,1 15 8 - - SW 1023,3 17 - 0,0
19.11.2017 23:00:00 3,0 1,0 15 8 - - SW 1023,8 25 0 0,0
19.11.2017 22:00:00 2,6 0,5 13 7 - - SW 1024,1 20 0 0,0
19.11.2017 21:00:00 3,6 0,8 13 7 - - WSW 1024,0 30 0 0,0
19.11.2017 20:00:00 3,7 1,2 15 8 - - WSW 1023,8 24 0 0,0
19.11.2017 19:00:00 3,3 1,2 13 7 - - WSW 1024,0 29 0 0,0
19.11.2017 18:00:00 2,4 0,0 13 7 - - W 1024,0 25 0 0,0
19.11.2017 17:00:00 3,1 0,9 16 9 - - W 1023,9 29 0 0,0
19.11.2017 16:00:00 4,9 1,7 13 7 - - W 1023,5 35 36 0,0
19.11.2017 15:00:00 6,2 2,1 15 8 - - WNW 1023,5 29 54 0,0
19.11.2017 14:00:00 6,5 2,2 18 10 - - WNW 1023,6 35 60 0,0
19.11.2017 13:00:00 6,0 2,3 18 10 - - WNW 1023,7 30 60 0,0
19.11.2017 12:00:00 6,0 1,6 18 10 - - WNW 1023,5 30 - 0,0
19.11.2017 11:00:00 5,5 1,4 21 11 - - NW 1023,5 28 54 0,0
19.11.2017 10:00:00 5,1 1,6 15 8 - - WNW 1023,3 18 60 0,0
19.11.2017 09:00:00 4,4 1,1 16 9 - - NW 1023,1 29 - 0,0
19.11.2017 08:00:00 3,8 0,9 15 8 - - NW 1022,5 30 - 0,0
19.11.2017 07:00:00 3,8 0,4 21 11 - - NW 1021,9 40 0 0,0
19.11.2017 06:00:00 4,0 0,5 21 11 - - NNW 1021,5 40 0 0,0
19.11.2017 05:00:00 4,8 1,2 22 12 - - NW 1021,1 30 0 0,0
19.11.2017 04:00:00 5,5 2,8 24 13 - - NW 1020,8 24 0 0,0
19.11.2017 03:00:00 5,7 2,9 22 12 - - NW 1020,7 30 0 0,0
19.11.2017 02:00:00 5,8 3,1 21 11 - - NW 1020,5 29 0 0,0
19.11.2017 01:00:00 6,2 3,7 24 13 - - NW 1020,2 22 0 0,0
19.11.2017 00:00:00 6,7 3,8 28 15 - - NW 1020,0 30 - 0,0
18.11.2017 23:00:00 7,1 4,9 21 11 - - WNW 1019,8 24 0 0,0
18.11.2017 22:00:00 7,6 5,5 15 8 - - WNW 1019,8 30 0 0,0
18.11.2017 21:00:00 7,2 5,9 18 10 - - W 1019,8 26 0 0,0
18.11.2017 20:00:00 7,2 5,6 16 9 - - WNW 1019,7 26 0 0,0
18.11.2017 19:00:00 7,3 5,9 16 9 - - W 1019,7 30 0 0,0
18.11.2017 18:00:00 7,3 5,9 13 7 - - W 1019,9 30 0 0,0

tt = temperature
td = dewpoint
ff = wind speed
fx = gusts
dd = wind direction
ppp = reduced air pressure
vv = visibility
sd = sunshine duration
rr = precipitation

Next stations